Regional Weather Roundup
Issued by NWS Sioux Falls, SD

Home | Current Version | Previous Version | Graphics & Text | Print | Product List | Glossary Off
Versions: 1 2 3 4 5 6 7 8 9 10 11 12 13 14 15 16 17 18 19 20 21 22 23 24 25 26 27 28 29 30 31 32 33 34 35 36 37 38 39 40 41 42 43 44 45 46 47 48 49 50

000
ASUS43 KFSD 291502
RWRFSD

WEATHER ROUNDUP FOR SE SOUTH DAKOTA/SW MINNESOTA/NW IOWA
NATIONAL WEATHER SERVICE SIOUX FALLS SD
1000 AM CDT MON AUG 29 2016

NOTE: "FAIR" INDICATES FEW OR NO CLOUDS BELOW 12,000 FEET WITH NO
SIGNIFICANT WEATHER AND OR OBSTRUCTIONS TO VISIBILITY.


SDZ038>040-050-052>070-291600-
SOUTHEAST SOUTH DAKOTA

CITY           SKY/WX    TMP DP  RH WIND       PRES   REMARKS
CHAMBERLAIN    SUNNY     78  66  66 W8        30.13R
HURON          SUNNY     77  68  73 S12       30.11R
MADISON        FAIR      73  73 100 SW9       30.17R
MITCHELL       SUNNY     77  69  76 SW5       30.13R
SIOUX FALLS    PTSUNNY   76  68  76 S5        30.17R
WINNER         FAIR      78  65  63 SW13      30.13R
YANKTON        PTSUNNY   73  64  73 SE5       30.15R
$$

MNZ071-072-080-081-089-090-097-098-291600-
SOUTHWEST MINNESOTA

CITY           SKY/WX    TMP DP  RH WIND       PRES   REMARKS
FAIRMONT       CLOUDY    73  69  87 SE5       30.23R
JACKSON          N/A     72  64  78 S3        30.23R
LUVERNE        MOSUNNY   72  64  78 S5        30.20R
MARSHALL       PTSUNNY   72  67  84 E14       30.21R
MONTEVIDEO     MOSUNNY   75  68  78 SE17G23   30.21S
REDWOOD FALLS  MOSUNNY   72  66  81 SE8       30.21R
TRACY          MOSUNNY   76  69  78 NE5       30.22R
WINDOM         MOSUNNY   75  66  73 S6        30.22R
WORTHINGTON    MOSUNNY   72  67  84 S3        30.22R
$$

IAZ001>003-012>014-020>022-031-032-NEZ013-014-SDZ071-291600-
NORTHWEST IOWA

CITY           SKY/WX    TMP DP  RH WIND       PRES   REMARKS
CHEROKEE       CLOUDY    73  70  90 S6        30.20R
DENISON        PTSUNNY   72  70  94 CALM      30.19S
ESTHERVILLE    CLOUDY    73  70  90 SE5       30.22R
LE MARS        CLOUDY    73  68  83 S10       30.20R
ORANGE CITY    CLOUDY    73  70  88 S8        30.20R
SHELDON        CLOUDY    72  70  94 S8        30.20R
SIOUX CITY     CLOUDY    75  68  78 S9        30.19R
SPENCER        CLOUDY    74  67  78 S5        30.21R
STORM LAKE     PTSUNNY   73  70  88 S7        30.22R
$$

ABBREVIATIONS USED IN REMARKS
   TC - TEMPERATURE IN CELSIUS
  WCI - WIND CHILL INDEX
   HX - HEAT INDEX
  VSB - VISIBILITY





USA.gov is the U.S. government's official web portal to all federal, state and local government web resources and services.